Theta_e
309 311 312 312 312 312 310 311 312 312 311 322 322 326 326 331 336 338 338 340 342 344 344 342 342 339 340 345 347 347 347 346 346 346 345 345 345 344 340 327 333 341 345 347
310 311 310 311 310 311 311 311 312 314 317 319 320 323 323 325 329 332 335 334 334 335 342 345 345 343 343 341 343 347 347 348 348 347 347 346 346 346 345 344 329 328 338 343
310 310 309 307 309 310 311 316 315 319 320 318 318 321 321 321 323 325 330 332 331 332 333 339 343 345 345 343 341 346 348 348 349 349 349 349 348 347 346 346 345 341 328 329
307 308 311 306 308 311 318 318 317 317 316 316 316 320 319 320 321 324 329 328 327 327 328 330 334 340 345 345 344 344 349 350 351 350 350 350 350 350 349 348 347 347 346 341
308 307 307 310 311 312 315 316 314 314 314 313 312 317 320 318 320 321 324 324 324 325 325 326 329 336 340 344 345 343 346 351 349 351 352 353 353 353 353 352 351 350 349 348
306 306 311 309 312 311 312 315 313 312 312 312 312 317 318 315 318 320 321 321 321 321 323 324 325 330 336 343 345 346 347 348 347 349 352 355 356 356 355 354 353 353 352 351
306 306 309 310 309 311 312 311 310 309 309 308 310 312 311 314 316 319 320 320 320 319 320 321 321 324 330 335 341 342 343 340 348 350 349 352 353 353 354 354 354 354 353 353
309 307 309 308 310 312 308 307 307 307 306 306 306 308 309 309 313 317 317 317 318 318 318 319 320 321 323 328 333 337 341 342 341 346 346 345 347 348 352 354 354 354 354 354
307 306 309 308 308 308 307 305 305 304 304 304 305 306 307 308 309 311 316 316 316 317 318 319 319 320 322 322 325 331 335 338 341 340 340 341 343 345 353 354 356 356 355 354
303 303 305 305 304 305 305 304 304 304 303 304 305 305 307 307 309 310 311 314 315 315 318 319 319 320 319 322 323 324 329 333 335 340 340 339 345 345 351 352 353 355 356 355
300 302 304 305 305 305 304 304 304 303 303 303 303 304 305 306 307 309 310 312 314 315 316 318 319 319 320 321 320 322 325 329 332 336 343 341 350 348 350 348 351 352 355 355
302 303 304 305 305 305 304 304 304 304 305 304 304 304 304 306 306 307 308 311 312 314 316 316 319 319 319 321 321 321 323 325 329 332 339 348 352 351 352 351 351 353 355 355
305 305 305 306 306 306 305 305 305 304 304 304 303 304 305 305 305 306 307 309 312 314 315 316 316 318 319 318 319 320 320 323 326 331 336 343 350 354 350 349 351 353 354 353
306 305 305 305 306 307 307 306 306 306 304 304 303 304 306 307 308 310 310 311 312 313 314 316 316 316 318 319 318 318 318 319 325 330 334 338 345 354 357 357 359 358 355 356
308 308 308 308 308 307 307 307 307 306 304 303 302 302 305 307 310 311 312 313 314 313 314 314 315 316 315 316 317 318 317 318 323 329 333 336 342 347 353 360 357 356 360 359
308 308 308 308 307 307 307 307 307 306 305 304 302 302 302 305 305 307 308 309 311 311 311 311 313 313 314 315 316 317 317 318 321 328 331 335 336 341 348 354 359 358 357 355
309 309 309 309 308 308 307 307 307 306 305 304 303 302 302 302 302 303 304 305 306 307 307 308 310 312 312 312 313 315 316 317 322 327 329 334 337 339 346 351 354 356 354 351
310 310 309 307 308 308 307 306 306 306 306 305 304 303 302 301 301 301 301 302 304 304 304 305 307 309 313 313 312 313 316 318 320 323 326 331 335 337 341 343 346 349 352 354
310 310 310 309 309 308 307 306 306 306 306 306 305 304 302 301 301 301 301 301 302 303 302 303 304 306 309 311 313 313 316 319 320 321 324 329 332 334 338 339 342 344 347 351
310 309 309 309 309 308 306 305 306 306 306 306 305 305 302 301 301 301 301 301 301 302 302 301 301 303 305 308 310 311 313 317 318 322 324 325 326 331 332 337 342 345 347 345
309 309 308 308 308 307 306 306 306 306 306 306 305 303 302 301 301 301 301 301 301 301 301 301 300 301 301 304 307 309 311 313 316 319 320 322 321 323 324 326 333 337 340 342
308 308 307 308 307 307 306 306 306 305 306 306 303 302 302 302 302 302 301 302 301 301 300 300 300 299 300 302 303 304 307 308 311 314 315 317 317 316 317 318 322 324 324 326
308 307 307 307 306 307 306 306 306 306 305 306 304 302 303 303 303 303 303 302 302 301 300 300 299 299 299 300 300 301 302 303 304 308 309 309 309 309 312 312 315 318 318 318
307 307 307 307 306 305 306 306 305 305 305 305 303 305 304 303 303 303 302 302 301 301 300 299 299 299 299 299 300 299 299 300 300 302 303 305 307 303 306 306 310 308 311 312
306 307 307 306 306 305 305 305 305 305 305 304 304 304 304 304 304 303 302 301 301 301 300 299 299 299 298 298 298 298 298 298 299 299 300 301 301 298 301 303 302 304 303 304
305 306 305 306 305 304 305 305 305 305 304 304 305 303 304 304 303 303 302 302 301 301 300 299 299 299 299 298 298 297 297 296 295 295 298 298 298 297 298 297 298 297 299 300
305 305 305 305 304 304 304 305 305 305 304 304 304 304 304 303 303 302 302 302 301 301 300 300 299 299 299 298 298 298 297 296 295 294 294 293 294 293 294 295 297 296 298 296
Wind_Speed
3 3 3 3 3 5 4 3 4 6 6 6 12 15 22 22 28 28 26 20 13 2 7 10 15 13 9 22 30 36 41 43 44 43 41 37 34 33 36 41 43 43 40 37
4 4 5 1 3 5 6 4 1 3 3 5 14 20 28 28 24 26 27 25 24 22 8 9 9 16 20 18 28 29 34 38 39 39 39 42 38 35 35 37 42 44 45 44
3 5 6 5 4 4 2 1 4 5 1 5 5 13 19 25 28 27 23 25 24 24 20 17 8 0 14 22 19 21 32 35 38 38 38 38 38 38 38 38 37 41 46 47
1 4 2 5 3 3 7 3 5 5 4 7 8 0 14 21 24 24 21 21 23 22 20 18 15 8 5 10 23 24 26 31 35 35 35 33 35 34 35 39 40 40 41 45
4 3 5 5 3 4 1 4 4 2 5 14 18 9 4 15 18 19 17 18 20 19 20 19 17 15 11 5 8 22 26 27 23 27 31 30 32 29 32 36 37 38 40 41
3 4 4 4 5 8 4 4 3 6 5 12 18 2 2 19 15 18 17 18 21 21 19 19 18 18 14 9 4 11 14 15 25 26 29 34 33 30 28 33 35 35 35 35
2 3 5 3 14 8 6 2 4 9 9 13 4 8 21 19 17 15 16 19 21 23 22 21 18 16 15 12 7 6 13 13 22 25 20 23 24 26 31 34 35 37 37 36
2 1 6 7 4 1 2 3 7 9 14 19 22 19 23 20 16 17 19 19 22 24 22 22 18 15 15 17 15 10 10 14 17 28 26 22 19 20 26 32 36 38 39 39
6 4 2 2 6 7 8 13 13 15 21 21 25 20 24 27 25 22 20 20 21 23 22 19 18 16 16 18 18 17 14 12 17 19 25 23 24 24 26 30 35 40 41 41
3 3 8 16 17 14 11 14 16 17 19 21 27 28 23 30 29 28 26 23 23 25 24 20 18 15 20 18 21 20 22 21 18 18 23 23 24 25 25 29 35 39 42 44
5 11 10 4 4 8 15 15 16 18 20 23 26 31 27 31 32 31 30 26 23 23 25 24 19 18 19 28 25 25 25 24 23 21 17 21 22 24 29 31 35 41 39 41
6 11 5 6 3 5 8 12 14 19 22 25 24 27 27 30 32 32 32 28 25 22 24 23 20 21 21 23 31 32 30 26 27 27 21 18 20 23 28 28 29 34 34 39
3 10 13 8 11 10 13 17 19 22 24 27 27 24 26 29 31 33 34 29 25 25 22 23 23 23 20 22 22 26 29 27 24 26 23 21 20 20 27 31 33 31 33 35
20 15 15 19 16 13 18 21 24 22 25 24 21 20 21 27 25 25 25 23 23 24 22 21 21 24 24 23 22 24 24 24 26 25 23 23 22 18 24 31 32 30 33 36
18 18 19 16 15 16 17 21 24 17 22 26 20 17 20 12 8 8 15 19 18 19 21 22 24 25 23 24 24 23 25 23 23 25 24 20 19 22 23 25 28 30 33 33
5 9 9 11 12 11 14 16 20 16 17 19 25 15 13 11 9 5 7 11 14 15 17 18 20 21 22 23 24 24 23 22 23 24 26 22 27 26 24 24 26 28 29 25
11 11 12 14 10 9 12 11 13 14 14 12 17 22 16 12 11 9 6 6 8 10 12 14 16 17 18 18 19 20 19 19 20 22 22 22 25 25 25 27 25 26 29 29
12 10 9 9 9 11 11 12 11 13 12 12 13 14 20 10 9 8 6 3 6 6 8 10 10 16 17 17 16 15 16 18 20 17 19 20 22 24 28 29 29 25 28 27
10 11 12 13 12 11 10 13 11 12 10 13 11 12 15 13 6 7 9 6 7 13 19 15 11 12 13 14 15 11 12 14 16 15 19 21 22 19 19 23 25 22 24 24
14 10 12 12 12 8 9 10 12 14 8 11 8 11 16 6 7 9 10 17 16 13 13 21 15 7 7 9 9 7 8 9 9 9 9 13 14 14 16 21 15 19 21 21
8 9 12 11 9 8 10 10 9 10 4 7 0 3 15 14 14 14 18 20 18 21 15 21 24 16 10 5 2 2 3 5 6 2 1 6 6 8 9 11 16 19 20 25
8 9 13 14 12 12 11 10 10 9 3 6 5 3 2 5 8 15 15 15 17 21 27 20 25 22 16 10 10 10 7 3 3 3 4 5 5 2 6 8 9 12 14 18
8 8 4 8 14 12 6 9 5 2 3 7 6 2 3 8 12 14 14 8 10 12 18 27 31 27 24 21 19 18 17 16 13 9 7 11 11 11 10 16 19 20 21 20
8 10 9 6 3 5 7 6 5 3 1 7 3 3 3 7 10 12 12 4 6 2 16 19 28 32 29 26 25 26 27 24 22 22 18 16 14 12 15 16 18 23 23 23
8 9 12 8 9 12 7 6 4 2 0 2 5 2 1 4 6 6 11 8 6 5 6 10 19 27 31 30 28 28 29 30 29 27 27 26 24 18 22 19 20 20 21 23
7 8 7 8 9 4 6 9 6 6 2 3 7 6 3 4 8 5 7 8 8 6 8 7 11 18 24 26 31 30 27 28 30 30 28 27 27 23 24 22 25 20 25 24
7 3 3 6 5 6 7 8 6 6 4 1 1 2 4 0 5 8 11 7 8 9 9 9 11 10 14 20 20 24 29 27 25 27 26 28 28 19 18 19 19 19 25 19
Wind_Direction
141 185 141 206 89 76 100 179 153 276 343 329 341 346 347 4 25 26 30 45 46 252 266 250 223 215 243 231 235 234 234 235 237 238 238 240 239 241 239 233 234 236 238 242
346 333 0 310 243 172 181 147 223 254 260 327 350 360 9 4 15 26 18 27 39 43 26 6 280 248 257 258 233 230 234 236 238 239 243 240 241 242 241 241 237 237 239 241
298 327 352 13 351 83 127 79 170 199 229 353 340 7 9 7 17 17 24 16 23 21 23 30 38 300 222 221 225 239 231 238 240 241 241 245 246 247 245 245 243 241 241 242
199 13 319 238 280 97 115 84 69 87 356 337 323 24 28 19 11 12 14 10 6 8 10 15 6 348 325 256 233 226 227 226 234 239 244 245 248 251 252 249 247 247 245 245
146 203 302 283 21 66 7 222 80 109 341 326 335 262 265 8 7 357 355 353 358 360 356 356 357 6 7 347 226 221 219 220 230 235 240 242 244 251 256 255 251 250 248 248
130 148 233 237 311 337 312 247 98 68 20 337 349 327 284 343 343 339 336 339 343 349 353 352 354 357 5 358 238 209 214 218 228 237 235 236 242 247 254 259 260 258 255 253
198 219 283 1 308 320 152 245 15 357 335 325 308 283 304 320 317 319 324 327 324 329 337 338 344 342 353 353 346 285 247 240 225 214 214 226 236 251 255 255 257 260 261 260
162 257 268 4 329 294 344 325 319 319 311 308 302 299 290 299 303 301 308 312 317 313 319 323 331 328 339 334 337 324 298 251 249 236 239 247 257 268 260 255 256 257 257 262
180 224 193 331 262 278 293 303 314 313 309 304 300 295 287 292 296 294 293 301 306 307 303 309 320 320 307 321 325 320 313 295 263 249 246 256 264 266 264 256 250 252 253 255
18 263 239 298 295 271 296 307 303 303 307 301 289 290 283 285 282 284 285 286 295 294 291 292 300 304 308 308 312 319 319 315 302 278 258 255 255 251 258 257 255 250 246 251
262 276 279 287 329 287 304 301 293 304 304 310 295 285 283 280 277 278 278 279 284 283 282 285 292 295 296 298 309 306 308 313 312 304 283 256 265 250 247 258 258 256 252 253
221 204 188 239 264 326 343 338 332 319 307 312 301 288 284 275 275 276 275 267 274 278 270 277 283 287 292 276 282 301 302 307 311 308 296 281 280 264 246 251 261 266 263 256
234 219 228 274 292 292 286 311 308 324 321 302 311 294 286 280 273 272 267 264 261 265 261 274 279 278 279 286 285 288 297 299 302 299 302 287 282 273 269 252 252 258 260 259
240 246 244 253 275 297 304 308 311 316 330 312 309 323 315 286 278 269 260 256 250 257 260 267 272 280 282 281 285 285 291 292 291 294 294 298 285 269 253 258 255 251 255 256
244 244 263 283 286 291 296 300 305 305 334 341 330 319 349 334 269 240 223 232 235 249 258 266 272 275 279 280 279 282 285 291 290 286 286 282 290 274 267 251 253 255 256 253
255 241 247 263 285 300 299 293 304 302 320 338 12 336 338 353 340 304 251 243 243 251 261 264 266 270 274 277 281 280 287 295 291 288 291 290 284 279 273 262 246 250 253 250
235 243 246 255 267 302 309 301 300 287 312 329 355 4 343 326 318 324 345 301 274 273 279 276 271 269 274 277 277 280 279 280 277 277 289 283 273 268 267 263 258 251 250 258
252 276 266 270 285 291 308 309 299 287 306 305 312 349 1 344 346 342 337 3 24 359 336 309 285 278 274 275 276 275 270 270 271 276 287 272 269 258 265 267 263 262 258 253
260 272 263 259 277 285 296 298 299 289 290 307 307 312 359 352 14 36 42 41 31 25 15 352 321 286 279 271 272 267 264 272 278 282 287 289 266 264 268 271 262 254 252 251
271 277 279 276 262 278 279 300 299 289 286 306 324 312 347 21 54 50 37 40 36 19 6 17 10 343 308 279 271 255 248 253 258 270 309 281 270 259 257 250 235 219 242 250
260 263 272 269 254 267 272 282 285 301 264 318 12 52 58 68 65 54 45 41 26 13 16 21 22 19 15 352 295 245 210 222 222 245 354 344 323 254 237 244 228 225 230 217
267 271 263 265 260 270 268 265 282 306 238 200 163 128 131 48 47 42 33 11 21 31 28 30 28 30 38 48 71 73 83 97 153 152 109 100 71 104 162 172 176 174 176 182
282 274 280 211 234 267 249 230 262 255 258 174 146 194 13 11 350 331 332 19 8 27 42 43 36 32 39 53 64 70 74 72 72 88 98 92 101 101 120 128 131 133 131 130
274 252 229 272 259 242 226 224 221 251 172 172 172 241 296 357 12 23 29 108 147 50 51 48 47 37 33 42 57 67 68 69 72 77 78 82 84 79 98 107 111 117 124 126
257 252 236 249 249 263 226 206 198 228 191 240 190 191 319 3 4 34 43 64 130 60 58 61 44 43 42 45 42 52 59 62 63 68 75 77 76 80 81 84 94 98 105 104
257 256 249 224 219 251 211 195 188 160 138 251 224 208 93 41 37 112 35 86 79 66 67 66 48 37 42 50 51 52 56 57 60 61 62 67 73 61 68 78 80 83 88 85
188 175 201 228 205 200 183 187 196 165 124 71 323 180 126 113 64 86 111 92 78 72 78 78 58 49 47 46 44 48 51 57 63 66 64 62 67 75 75 70 77 76 78 79